Wind_Speed
17 18 19 20 21 21 21 23 23 23 23 24 24 23 23 22 21 21 19 17 15 13 12 11 10 10 10 8 7 7 8 9 8 8 7 7 7 8 8 8 8 9 9 10 10 11 11 11 11 11 11 11 11 11 12 12 12 12 12 12 12 12 12 12 12 12 12 12 12 13 13 13 13 13 13 13 13 14 14 14 14 15 15 15 15 15
15 16 16 17 18 19 19 21 21 22 22 23 23 23 22 22 21 19 17 15 14 12 10 9 9 8 8 6 5 6 8 8 8 7 7 7 7 8 8 8 8 9 10 10 11 11 12 12 12 11 11 11 11 11 11 11 12 12 12 12 12 12 12 13 13 13 13 13 13 13 13 13 13 13 14 14 14 14 14 15 15 15 15 15 15 15
12 13 14 15 16 17 18 19 19 20 20 21 21 20 20 19 18 16 14 13 11 9 8 7 7 7 7 6 6 7 8 8 8 7 7 7 7 7 8 8 9 9 10 11 12 12 12 12 11 11 11 11 11 11 11 11 12 12 12 12 13 13 13 13 13 13 13 13 13 13 13 14 14 14 14 14 14 14 15 15 15 15 15 15 15 16
11 12 14 14 15 15 16 17 17 17 17 17 16 15 15 14 13 12 10 9 7 6 6 6 6 7 8 8 8 9 9 8 7 7 7 7 7 7 7 8 9 11 12 12 12 12 12 11 11 11 11 11 11 11 11 11 12 12 12 12 13 13 13 13 13 13 13 13 13 14 14 14 14 14 14 14 15 15 15 15 15 15 15 16 16 16
10 11 13 14 14 14 14 14 13 13 12 12 11 10 10 9 8 7 6 5 5 5 6 7 8 10 10 10 9 9 9 8 7 6 6 6 6 7 8 9 11 12 13 13 12 12 11 11 10 10 10 11 11 11 11 12 12 12 12 12 13 13 13 13 13 13 13 13 13 13 13 14 14 14 14 14 15 15 15 15 15 15 15 15 16 16
10 10 12 13 13 12 11 10 10 9 8 8 8 7 6 6 5 4 4 5 6 7 8 10 11 11 11 10 10 10 9 9 8 7 7 7 8 9 10 12 13 14 13 12 11 11 10 10 10 10 10 10 11 11 11 12 12 12 12 13 13 13 13 13 13 13 13 13 13 13 13 13 14 14 14 14 14 15 15 15 15 15 15 15 16 16
9 10 11 11 11 10 9 8 7 6 6 6 6 5 5 5 5 6 7 8 9 10 11 11 12 11 11 11 10 10 10 10 10 10 10 10 11 12 14 15 15 15 13 11 10 10 10 10 10 10 10 10 11 11 12 12 12 13 13 13 13 13 13 13 13 13 13 13 13 13 13 13 13 13 13 14 14 14 14 15 15 15 15 15 15 16
8 8 9 9 9 8 7 6 5 5 5 5 5 6 7 7 8 10 11 12 12 12 12 12 12 12 11 11 10 10 10 11 11 11 11 12 13 15 16 17 16 14 11 10 9 9 9 9 9 10 10 11 11 12 12 13 13 13 13 13 13 13 13 12 12 12 12 12 12 12 13 13 13 13 13 14 14 14 14 15 15 15 15 15 16 16
9 8 7 7 7 7 6 5 4 4 4 5 6 8 9 11 12 12 13 14 14 13 13 12 12 11 11 10 10 10 10 10 11 11 12 13 15 16 17 16 14 11 9 8 8 9 9 9 10 10 11 12 12 13 13 13 13 13 13 13 13 13 12 12 12 12 12 12 12 12 12 13 13 13 13 14 14 14 15 15 15 16 16 16 16 17
8 8 7 7 7 6 5 5 4 4 5 5 7 8 10 12 13 13 14 14 13 13 12 12 10 9 9 9 10 10 10 11 11 12 13 15 16 16 15 13 11 9 8 8 8 9 10 10 11 12 13 13 13 13 13 13 13 13 12 12 12 12 12 12 12 12 12 12 12 12 13 13 13 14 14 14 15 15 15 16 16 16 17 17 17 17
7 7 6 6 6 5 3 3 3 4 5 7 8 10 11 12 12 12 12 12 12 12 11 10 9 8 8 9 9 10 11 11 12 13 15 16 16 15 13 11 10 10 10 10 10 11 12 13 14 14 14 14 14 14 13 13 12 12 12 11 11 11 11 11 11 11 12 12 12 13 13 13 14 14 15 15 15 16 16 16 17 17 18 18 18 18
5 5 4 4 3 3 2 2 3 4 6 8 10 12 13 13 12 12 12 12 11 10 9 9 9 9 8 8 9 10 12 13 14 15 16 16 16 14 12 11 11 11 12 12 13 14 14 14 15 15 14 13 12 12 11 11 11 11 11 10 10 10 10 11 11 11 12 12 13 13 14 14 15 15 16 16 16 17 17 17 18 18 18 19 19 19
3 3 2 2 2 2 3 3 4 6 7 9 10 10 11 11 11 11 11 10 9 9 8 8 8 8 8 9 10 11 12 14 15 16 16 16 15 13 12 12 12 13 13 14 14 14 13 13 12 11 10 9 9 9 9 9 9 9 9 9 9 9 10 11 12 12 13 13 14 14 15 15 15 16 16 17 17 17 18 18 18 19 19 19 20 20
1 2 2 2 3 4 4 5 6 6 7 8 9 10 10 10 10 10 9 8 8 8 8 8 7 7 8 9 10 12 13 14 15 16 16 16 15 15 14 14 14 14 14 14 13 11 10 8 8 7 7 7 7 7 8 8 8 8 8 8 9 10 11 12 13 13 14 14 14 15 15 15 16 16 17 17 17 18 18 18 19 19 20 20 20 20
1 2 3 3 4 5 5 6 6 7 8 8 9 10 10 9 9 8 7 7 7 7 7 7 7 8 8 8 9 11 12 13 14 16 17 18 17 16 16 16 15 15 13 12 10 8 6 5 5 5 5 6 6 7 7 8 8 8 8 9 11 12 13 13 14 14 14 15 15 15 15 16 16 17 17 17 18 18 18 19 19 20 20 20 21 21
2 3 4 5 5 6 6 7 7 8 8 8 9 9 8 7 7 7 7 6 6 6 5 6 7 8 8 8 8 9 10 12 14 16 18 20 19 17 16 16 15 14 12 10 8 6 4 4 4 5 6 6 7 7 8 8 8 9 10 12 13 13 14 14 14 14 15 15 15 15 16 16 17 17 17 18 18 19 19 19 20 20 20 21 21 21
4 5 5 6 7 7 7 7 8 8 8 7 7 7 6 6 6 6 6 6 5 5 5 5 5 5 6 7 8 8 10 12 15 17 19 21 20 18 16 15 15 14 11 9 7 6 5 5 5 6 7 7 8 9 9 10 10 11 12 13 13 14 14 14 15 15 15 15 15 16 16 17 17 17 18 18 18 19 19 19 20 20 20 21 21 21
6 6 7 7 8 7 6 6 6 5 5 5 5 6 6 6 6 5 5 5 5 5 5 5 5 5 5 7 7 9 12 14 16 18 20 21 20 18 16 15 14 13 11 9 7 6 7 7 8 8 9 10 10 11 11 11 11 12 12 13 13 14 14 15 15 15 15 15 16 16 16 17 17 17 17 18 18 18 19 19 19 20 20 21 21 21
6 6 6 5 5 4 3 3 2 2 3 3 4 4 5 5 5 5 5 5 5 5 5 5 6 7 8 9 10 12 14 15 16 17 18 19 20 18 15 14 13 13 12 10 9 8 8 9 10 10 11 12 13 13 13 12 12 12 13 13 14 14 15 15 15 15 16 16 16 16 16 16 16 17 17 17 18 18 19 19 19 20 20 21 21 22
3 3 2 1 1 1 2 2 2 2 2 2 3 3 3 4 4 5 5 6 6 7 7 7 8 8 9 10 12 13 15 15 16 16 16 18 19 18 15 14 13 13 13 12 10 10 11 11 12 13 13 14 14 14 14 13 12 13 13 14 14 14 15 15 15 15 16 16 16 16 16 16 16 17 17 17 18 18 19 19 20 20 21 21 21 22
1 1 2 2 1 1 1 2 2 2 3 3 3 3 4 5 5 6 7 7 8 8 9 9 9 10 11 12 13 14 15 15 14 14 14 15 17 16 14 13 14 14 15 14 12 12 13 14 14 15 15 16 16 15 14 13 12 13 13 14 14 14 14 15 15 15 15 15 15 16 16 16 17 17 17 18 18 19 19 19 20 20 21 21 21 22
2 2 2 3 3 3 3 3 4 4 5 5 5 5 5 6 6 7 8 8 9 9 10 10 10 11 12 13 14 15 15 14 13 13 12 12 14 15 13 13 14 15 16 16 14 14 15 16 17 17 17 17 16 15 14 13 12 12 13 13 14 14 14 14 14 15 15 15 15 16 16 17 17 17 18 18 18 19 19 19 19 20 20 20 21 21
3 3 4 4 5 5 5 5 6 6 7 7 7 8 8 8 8 9 9 9 9 10 10 10 11 12 13 14 14 14 14 13 12 11 9 8 11 13 13 13 14 16 17 17 16 16 17 18 19 18 18 17 16 15 13 12 12 12 12 13 13 13 14 14 14 14 15 15 16 16 17 17 18 18 18 18 18 18 18 18 19 19 19 20 20 21
3 4 5 5 6 6 7 7 7 8 8 8 8 9 9 9 9 9 9 9 9 9 9 10 11 12 13 13 13 13 13 11 10 9 7 7 9 12 13 14 15 16 18 18 18 19 20 21 21 20 19 17 16 14 12 12 11 12 12 13 13 13 14 14 15 15 16 17 17 17 18 18 17 17 17 17 17 18 18 18 18 19 19 20 20 21
3 4 5 6 6 6 7 8 8 8 8 8 8 9 9 9 8 8 8 8 8 8 9 10 11 12 12 12 12 12 11 9 7 7 8 8 10 12 13 13 14 16 18 19 19 20 22 24 23 21 19 17 15 13 12 11 11 12 12 13 13 14 15 16 16 17 17 18 18 17 17 17 17 17 17 17 17 17 18 18 18 18 19 19 20 21
2 3 4 4 5 5 6 6 7 7 7 8 8 8 9 8 9 9 9 9 9 9 9 10 11 11 12 11 10 10 9 8 7 8 8 8 10 12 12 12 13 15 18 20 22 23 24 25 25 22 20 16 13 12 11 11 12 12 13 14 15 16 17 18 18 18 18 17 16 16 16 16 16 16 16 17 17 17 18 18 18 18 19 19 20 21
1 2 2 3 4 4 5 5 6 6 6 6 7 8 9 9 9 10 10 10 9 9 9 9 10 10 11 10 9 9 9 9 9 10 10 10 11 11 12 12 12 14 17 20 22 23 24 24 24 22 19 15 13 12 12 12 13 14 16 17 18 19 19 19 18 17 16 16 15 15 15 16 16 16 17 17 17 17 18 18 18 18 19 19 20 20
5 5 6 6 6 7 7 7 7 7 7 6 6 6 7 8 9 10 10 10 9 9 9 10 9 9 8 8 9 10 11 12 11 10 10 9 8 8 10 11 11 13 16 19 22 23 22 22 21 20 17 15 13 12 13 15 16 18 19 20 21 20 19 18 17 16 15 15 15 15 16 16 16 17 17 17 17 17 18 18 18 18 19 19 19 20
8 9 9 10 11 11 11 11 11 10 9 8 7 6 7 9 9 10 9 9 9 9 10 10 10 9 9 10 11 12 12 12 9 6 6 6 6 7 9 10 11 13 15 18 20 21 20 19 18 16 15 14 14 15 16 18 20 21 22 22 21 19 18 17 17 16 16 16 16 16 16 17 17 17 17 17 17 17 18 18 18 18 18 18 19 19
11 12 13 13 13 13 12 12 12 11 11 10 9 8 9 10 10 10 10 9 9 9 10 10 10 10 9 9 9 9 8 5 2 1 3 4 5 6 9 10 12 13 14 14 14 13 15 16 15 13 12 14 16 18 20 22 23 23 22 22 21 20 19 18 17 17 17 17 17 17 17 17 17 17 17 17 18 18 18 18 18 18 18 19 19 19
14 14 15 14 13 12 11 10 10 11 11 11 11 10 11 11 11 11 10 10 10 10 10 10 10 10 8 7 4 3 3 0 1 1 3 5 6 8 10 11 12 13 12 10 7 6 8 12 12 11 13 16 20 23 24 24 23 23 22 22 22 21 20 19 18 18 18 18 18 18 18 18 18 18 18 18 18 18 18 18 18 18 19 19 19 20
16 16 15 14 12 10 10 9 9 9 9 9 9 9 9 10 10 10 9 9 9 10 10 10 10 9 9 8 6 5 5 4 4 5 7 7 9 11 12 11 12 12 11 9 8 6 4 7 12 16 18 20 23 24 25 24 23 22 22 22 22 22 21 20 19 20 20 20 20 19 19 19 19 19 19 19 19 19 19 18 18 18 18 19 19 20
16 16 15 13 11 10 9 9 8 8 8 7 7 7 7 7 7 8 8 8 8 9 10 10 10 10 10 10 10 11 11 10 9 9 9 9 10 11 11 11 12 12 12 11 11 11 10 12 16 20 21 22 22 22 23 23 22 22 21 22 23 23 23 22 22 22 23 22 22 21 21 20 20 20 20 20 20 19 19 18 18 17 17 18 19 20
17 16 14 12 10 9 8 8 7 7 6 6 5 5 5 6 6 7 7 7 8 9 9 10 10 10 10 11 11 12 13 12 11 9 9 10 10 11 12 12 12 13 12 12 12 12 14 16 17 18 19 21 21 21 21 21 21 20 20 21 22 24 25 25 25 25 25 24 24 24 23 23 22 22 21 21 20 19 19 18 17 17 17 18 19 20
16 15 12 10 8 7 6 5 5 4 4 4 5 5 5 5 6 7 7 8 8 9 9 10 10 11 11 11 12 12 13 12 11 10 9 10 11 12 13 13 13 12 12 12 12 12 13 15 16 16 17 19 20 20 19 18 18 19 19 21 22 24 25 26 26 25 25 25 25 25 25 24 24 23 23 22 21 20 19 18 18 18 19 19 20 20
15 13 10 7 6 5 4 4 3 3 3 4 4 5 5 6 6 7 7 8 9 9 10 10 11 12 12 13 14 14 15 14 13 12 12 12 13 14 14 14 14 13 13 13 13 13 13 15 16 17 17 17 18 19 18 17 17 18 19 21 23 24 25 25 25 25 25 25 25 25 25 24 24 24 24 23 22 20 20 20 20 20 20 21 21 21
13 10 8 6 5 5 4 4 4 4 4 5 5 6 7 7 8 8 9 9 10 11 11 12 13 14 14 15 17 17 18 18 17 16 15 15 16 16 16 16 16 15 14 14 14 14 14 15 16 17 16 16 16 17 18 18 19 19 20 21 22 23 24 24 24 23 23 24 24 24 24 24 24 24 24 23 22 22 22 22 22 22 22 22 21 21
10 8 7 6 5 5 5 5 5 6 6 7 7 8 8 9 10 11 11 12 13 13 14 15 16 17 17 18 18 19 19 19 19 19 18 17 17 18 18 18 18 17 16 16 16 15 15 15 14 14 15 16 17 18 19 19 20 20 21 21 21 22 22 22 22 21 22 22 23 24 24 24 24 24 24 24 24 24 24 24 24 23 22 22 22 21
8 7 6 6 6 6 6 6 7 7 7 8 8 9 10 11 11 12 12 12 13 14 15 15 16 16 16 17 17 18 18 17 17 17 16 16 16 17 18 19 19 18 18 17 17 17 17 16 15 14 15 17 19 20 20 19 20 20 21 22 22 21 20 19 19 20 21 22 23 24 24 24 24 24 24 24 24 24 24 24 24 23 22 22 23 23
7 6 6 6 6 7 7 7 7 8 8 9 9 10 10 11 11 11 11 10 11 11 12 12 12 12 13 13 14 14 14 14 14 14 14 14 15 15 17 18 19 19 18 18 18 18 18 17 18 18 18 18 19 20 21 21 20 20 21 21 21 21 20 19 19 20 21 22 22 22 23 23 23 23 22 22 22 22 23 23 24 24 23 23 23 24
6 7 7 7 7 7 7 7 7 8 9 9 10 11 11 10 10 10 10 10 9 9 9 10 10 12 12 13 13 13 13 13 13 13 13 14 14 14 16 17 19 19 19 18 18 18 18 18 19 19 20 20 20 22 22 22 21 21 20 21 22 23 23 22 21 20 20 20 20 20 21 21 21 21 21 22 22 22 23 24 25 25 25 24 24 23
6 7 7 7 7 7 7 7 7 8 9 10 11 11 11 10 10 10 10 11 10 10 10 11 12 13 15 15 14 13 13 12 12 12 13 13 13 14 15 16 17 18 19 19 19 19 18 19 19 20 20 20 20 21 22 23 22 21 20 21 23 24 24 23 20 18 18 19 20 21 21 21 22 22 23 23 23 24 24 24 25 25 25 25 24 24
6 7 7 7 7 7 7 7 8 9 10 11 11 11 9 8 8 9 10 11 11 11 11 11 12 14 15 15 15 14 13 12 12 12 12 12 12 13 14 15 16 17 18 19 19 19 19 19 19 20 20 20 21 21 23 24 23 22 21 21 21 21 20 21 21 20 20 21 22 22 22 22 23 23 23 24 24 25 25 25 26 26 25 25 25 26
6 7 7 7 7 7 8 8 9 10 11 11 11 10 8 6 6 7 9 10 11 11 12 12 13 14 15 15 15 15 14 13 11 11 11 11 12 12 13 14 15 16 17 19 19 19 19 19 20 20 20 20 20 21 23 24 24 23 23 22 21 20 21 22 23 23 23 23 22 22 22 22 22 23 24 24 25 25 26 26 27 27 26 26 26 27
7 7 7 7 7 8 9 10 10 11 11 11 10 9 7 6 6 7 8 10 11 12 12 12 13 13 13 13 13 14 14 13 12 12 11 11 11 12 12 13 14 15 16 18 20 20 20 20 20 20 20 20 20 22 22 23 24 24 24 23 22 22 23 24 24 23 23 23 23 23 23 22 23 23 24 25 25 26 26 26 26 27 27 27 27 27
8 8 8 8 8 9 10 10 11 12 12 11 10 9 7 6 6 7 9 10 12 13 13 13 13 12 12 13 13 13 14 14 14 13 13 13 12 12 12 13 14 15 17 18 20 21 22 22 22 22 22 21 22 23 23 23 23 23 24 23 22 22 23 23 23 23 22 23 23 24 24 23 23 24 24 25 26 26 27 26 26 26 27 27 26 26
8 8 9 9 9 10 10 10 11 11 12 12 11 10 8 7 7 8 9 10 12 13 13 12 12 12 13 13 14 14 14 15 16 16 16 15 15 14 14 14 15 16 17 18 20 21 22 24 24 24 23 22 23 23 24 23 22 22 23 23 23 23 23 23 23 23 22 23 23 24 24 24 24 23 24 25 25 26 26 26 26 26 26 26 25 25
8 9 9 10 10 11 11 10 10 11 12 12 12 10 9 7 8 9 10 11 12 12 12 12 12 13 13 14 14 14 14 15 16 17 17 17 17 16 16 16 16 17 17 19 20 21 22 24 25 25 25 23 23 23 24 24 23 22 22 22 22 23 23 24 24 23 23 23 24 25 25 24 23 23 23 24 25 26 26 27 27 26 25 25 25 25
9 9 10 10 11 11 11 11 11 11 12 12 12 11 10 9 8 10 11 12 12 13 13 13 13 13 14 14 14 14 15 15 16 17 17 17 17 17 17 17 17 17 18 18 19 20 21 22 23 23 24 24 24 24 25 25 24 23 22 22 22 22 23 24 24 24 23 23 24 24 24 23 23 23 23 23 25 27 28 28 28 27 26 25 25 25
10 10 10 10 11 11 11 11 11 12 12 12 12 12 12 11 11 11 11 12 13 13 13 13 13 13 14 15 15 15 15 15 16 16 17 17 17 17 17 17 17 17 17 17 18 18 18 19 20 20 20 21 22 23 24 25 24 24 23 22 22 22 23 23 24 24 23 23 23 24 24 24 23 23 22 22 24 26 27 28 27 27 26 25 25 25
11 11 11 11 11 11 11 11 11 12 12 12 12 12 12 12 12 13 13 13 13 13 13 14 14 14 14 15 15 15 15 15 15 16 16 17 17 16 16 16 16 15 16 16 16 16 15 15 15 16 18 17 18 20 22 23 23 23 23 23 23 23 23 23 24 24 24 24 23 23 23 23 22 22 21 21 22 23 25 26 27 27 26 26 25 26
Wind_Direction
195 198 202 206 208 210 216 221 225 228 232 234 233 232 233 237 243 246 247 243 237 232 230 232 237 242 246 250 255 257 256 260 264 267 270 274 278 282 287 289 292 295 298 299 300 300 299 299 298 297 296 294 292 291 290 289 288 288 288 289 289 289 289 289 288 287 287 286 285 284 284 284 284 284 284 284 284 283 283 282 283 282 282 282 282 282
190 195 199 205 208 210 214 221 225 227 229 231 233 235 237 240 242 242 239 235 232 231 233 237 241 245 250 258 267 265 257 260 264 268 272 277 282 286 290 293 296 300 302 302 302 302 300 299 298 296 294 292 291 289 289 288 288 288 288 288 288 288 287 287 286 285 285 284 283 283 282 282 282 282 282 282 282 281 281 281 281 281 281 281 281 281
173 180 188 197 203 206 210 216 222 226 228 232 236 239 240 240 238 235 232 230 230 232 234 237 243 250 257 263 267 267 265 267 268 272 276 281 285 289 292 296 300 302 303 304 303 301 299 297 295 293 291 290 289 288 288 288 288 288 288 288 287 287 286 285 284 283 282 281 280 280 280 280 280 280 280 280 280 280 281 281 281 282 282 282 282 282
161 167 177 187 195 202 208 214 219 223 228 232 236 238 236 233 230 228 227 228 230 233 237 242 249 254 257 259 262 268 273 274 274 276 280 284 287 291 294 298 301 303 303 302 301 298 296 294 292 290 290 289 289 289 289 289 289 288 288 288 287 286 286 284 284 282 282 281 280 279 279 279 279 279 279 279 280 280 281 281 282 282 282 283 283 283
158 164 173 179 185 194 206 212 215 217 221 224 225 224 222 220 220 221 222 226 235 244 250 252 252 252 253 257 263 269 273 273 273 275 277 280 283 288 292 296 299 301 301 300 299 296 294 292 291 291 290 290 290 290 290 290 289 289 288 287 287 286 285 284 283 282 282 281 281 280 280 280 279 279 279 279 280 280 281 281 282 282 282 283 283 282
159 166 173 176 180 188 197 200 201 201 203 205 206 206 207 211 218 227 237 246 254 259 259 255 250 248 251 256 262 266 267 264 262 262 265 269 274 282 288 294 298 300 299 299 297 296 295 293 292 292 291 291 291 291 290 289 288 288 287 286 285 284 283 283 282 282 281 282 282 281 281 281 281 281 281 281 281 282 282 282 283 283 283 282 283 283
161 168 173 176 181 185 186 182 180 182 186 190 196 204 216 228 242 252 258 261 262 260 257 250 246 246 250 255 259 261 260 259 259 260 264 270 276 283 290 295 298 299 299 298 297 296 296 294 293 292 292 291 290 290 289 288 287 287 286 285 284 284 284 284 284 284 284 284 284 284 283 283 283 283 283 283 283 283 284 284 284 284 283 283 283 283
154 163 171 175 178 179 178 173 172 178 189 199 213 229 241 248 253 256 257 257 255 252 247 243 242 245 249 253 255 257 258 260 262 266 270 276 283 290 295 298 299 299 298 298 298 297 296 294 293 292 291 290 289 289 288 288 287 286 285 285 284 284 285 285 286 286 286 287 286 286 286 286 285 285 284 284 284 284 284 284 284 284 284 284 283 283
145 151 165 175 178 178 181 184 187 194 207 220 231 240 246 249 250 249 248 247 245 242 240 240 241 245 248 250 253 256 259 263 267 272 279 286 293 297 300 300 299 296 293 295 296 297 296 292 291 291 289 289 288 288 287 287 286 285 284 284 284 284 285 286 287 287 288 288 288 287 286 286 286 285 285 285 284 284 284 284 284 284 284 284 284 283
148 151 160 174 182 185 189 201 210 215 224 233 240 242 244 245 245 243 241 240 239 239 239 240 240 242 246 250 254 257 262 266 271 278 286 294 300 302 300 296 289 282 279 283 287 289 288 286 287 287 287 287 288 287 285 284 283 283 283 283 284 285 287 287 288 288 289 289 289 288 287 287 286 285 284 284 284 283 283 283 283 283 283 283 283 282
144 154 158 167 178 187 195 213 227 231 233 237 239 239 240 240 240 239 237 237 238 240 240 241 240 239 242 248 255 261 265 268 274 282 290 297 301 300 293 283 273 268 266 270 273 275 278 280 282 283 284 284 282 281 280 279 278 279 280 281 282 285 287 288 289 289 290 290 289 289 288 287 286 285 284 283 283 283 282 282 282 282 282 282 281 281
139 152 159 165 176 192 214 235 241 237 232 229 229 232 235 237 239 241 240 239 238 238 237 240 242 245 248 255 263 270 274 279 285 292 298 302 302 297 287 276 268 266 267 270 272 275 278 281 282 282 281 278 276 274 274 273 274 275 276 277 280 284 287 290 291 291 291 290 290 289 287 286 285 284 284 283 282 282 282 281 281 281 281 280 280 280
147 162 175 186 203 222 234 239 239 235 230 228 229 234 238 240 243 246 246 243 239 234 232 236 242 251 260 269 278 285 288 293 297 302 306 308 306 301 293 284 279 278 278 279 280 281 283 284 282 280 277 275 272 272 272 273 274 274 276 279 285 290 292 293 293 292 291 290 289 288 287 286 285 284 283 283 282 282 281 281 281 280 280 280 280 280
170 193 214 235 244 244 243 242 243 243 243 242 243 245 247 248 249 248 243 237 232 231 233 236 245 259 274 284 289 293 298 302 306 309 310 310 308 305 301 296 293 291 290 289 287 287 288 287 283 278 274 273 274 275 277 278 279 280 283 289 293 295 295 294 293 292 290 290 288 287 286 286 285 284 284 283 283 282 282 281 281 280 280 280 280 280
229 241 252 257 257 254 252 252 255 258 258 256 256 255 254 252 249 243 233 224 224 231 239 248 262 275 285 289 293 297 301 306 309 311 310 308 307 306 305 303 300 298 297 295 294 294 295 291 289 285 281 280 282 284 286 288 290 293 296 297 296 295 293 292 291 290 290 289 288 287 286 286 285 284 284 283 283 282 282 281 281 281 280 280 279 279
262 259 260 262 263 262 262 263 264 265 265 262 259 255 249 241 235 230 222 218 226 239 257 277 289 292 288 286 290 297 302 306 309 310 309 307 306 307 309 308 306 304 302 301 302 304 306 300 297 296 295 294 294 296 299 302 303 302 299 295 293 291 290 290 290 289 289 288 288 287 286 286 285 284 284 283 283 282 281 281 280 280 280 279 279 278
275 268 264 265 267 269 270 268 267 266 263 256 248 238 226 219 218 220 219 225 239 257 276 289 296 297 291 288 290 296 302 307 309 309 308 306 306 308 311 311 309 308 307 307 310 316 319 316 312 309 308 307 308 310 311 309 305 299 295 291 290 289 289 289 289 288 288 287 286 286 286 285 284 284 283 283 282 281 281 280 280 279 279 278 278 278
278 273 270 267 268 270 270 266 262 257 250 235 222 215 212 213 217 224 232 243 257 274 285 289 288 286 287 290 292 296 302 307 309 309 307 305 305 308 312 313 311 310 310 312 317 323 325 322 321 319 317 317 317 317 314 309 303 297 293 291 290 289 289 288 288 287 286 285 285 284 284 284 283 283 283 282 282 281 281 280 280 279 279 278 278 277
274 273 269 268 267 264 255 247 235 223 212 204 203 205 208 219 232 244 254 266 274 281 288 289 285 283 283 285 289 296 301 306 308 308 307 304 305 308 313 315 314 313 312 314 320 326 326 324 322 321 320 319 318 316 313 309 304 298 294 291 290 289 288 288 288 288 287 286 285 285 285 284 283 282 282 282 282 281 281 280 280 279 279 278 278 277
258 254 249 252 248 236 223 220 216 209 201 209 222 232 239 251 262 270 275 281 285 288 289 287 282 281 286 289 294 298 302 305 308 308 306 302 303 307 314 317 315 313 313 315 321 327 325 323 321 320 319 319 318 316 314 310 305 298 293 291 289 288 288 288 287 287 286 286 286 285 285 284 284 283 283 282 281 281 281 281 280 280 279 279 278 278
206 206 224 237 246 248 237 245 253 259 265 273 276 277 277 280 283 284 285 288 289 290 291 286 283 284 289 291 294 298 301 305 308 308 305 301 301 305 313 318 317 314 313 315 320 324 323 320 319 317 318 318 318 318 315 310 303 297 293 290 288 288 287 286 286 286 286 285 285 285 285 285 284 284 283 282 282 281 280 280 280 280 279 279 279 278
231 238 254 259 264 270 276 279 282 284 287 293 296 296 293 293 291 288 287 288 289 289 288 286 288 289 291 292 294 297 301 304 306 306 303 297 296 301 312 317 316 313 311 313 318 321 320 317 316 316 317 318 319 318 314 308 302 297 292 290 288 287 286 286 285 286 286 286 286 285 285 285 285 284 284 283 283 283 282 281 281 280 280 280 280 279
260 263 271 275 276 279 286 291 293 294 295 298 298 298 298 296 292 289 287 287 288 287 289 290 291 292 292 293 295 298 300 303 305 304 299 288 290 299 310 315 314 310 308 312 317 319 317 315 314 315 317 319 319 318 314 308 302 296 292 290 288 288 287 287 287 287 287 286 286 286 286 285 285 285 285 284 284 284 283 283 282 281 282 282 282 281
277 277 278 283 287 291 294 297 299 300 301 301 301 300 299 297 294 291 290 289 289 289 291 293 294 293 293 294 297 299 301 303 304 300 289 280 287 297 306 311 311 309 308 312 316 317 315 313 313 315 317 320 320 318 314 307 301 296 292 291 290 290 290 290 289 288 288 287 287 286 285 285 284 285 285 285 284 285 284 284 284 283 284 284 283 283
296 294 294 295 300 302 300 300 301 302 303 302 301 299 297 294 291 290 289 288 288 290 294 297 297 297 298 300 302 303 304 306 303 293 282 281 287 293 300 306 309 309 309 312 314 315 314 313 313 315 318 320 320 318 313 307 301 297 294 292 292 292 292 291 291 290 290 289 288 287 286 286 285 285 285 285 286 286 286 286 285 285 285 285 285 284
317 312 312 309 307 301 292 291 292 293 293 293 293 291 287 284 281 280 279 280 282 287 293 296 296 297 298 301 301 302 304 304 297 286 280 281 287 292 297 304 309 310 310 312 313 313 313 312 312 315 318 321 320 316 310 305 300 297 294 293 293 293 293 293 293 293 292 291 290 289 288 288 287 287 286 287 287 287 287 287 287 287 287 288 287 286
295 289 289 284 280 278 276 275 274 275 277 278 282 284 283 280 277 275 273 274 277 281 285 286 289 292 295 296 295 296 299 298 293 287 281 280 283 289 295 304 310 312 312 311 311 311 311 310 311 314 317 319 318 313 306 301 297 295 294 295 295 296 297 297 297 296 295 294 292 291 290 290 289 289 288 288 288 288 289 289 289 289 289 290 289 287
272 271 270 270 269 268 268 266 264 263 266 269 273 279 283 281 277 273 271 272 273 275 275 275 279 285 289 291 294 297 299 297 295 291 284 278 275 282 294 305 312 314 315 314 312 311 309 307 309 312 315 315 312 305 298 295 294 295 296 298 300 301 302 302 301 300 299 298 296 295 293 292 291 291 290 290 289 290 290 290 291 291 291 291 290 288
277 279 280 279 277 273 269 266 263 260 259 263 271 277 276 274 273 271 270 270 270 269 268 268 270 274 281 289 296 300 301 300 300 294 281 275 275 283 297 308 314 318 321 320 317 313 309 306 307 310 310 307 301 295 292 293 296 298 301 304 306 307 306 306 305 304 302 301 299 297 295 294 293 292 292 291 291 291 291 292 293 293 293 291 290 289
286 288 289 288 283 277 271 267 264 260 258 260 264 266 263 264 265 266 267 268 268 266 264 264 266 270 277 291 301 305 302 303 302 264 272 288 290 295 305 311 314 318 324 325 322 315 308 306 304 303 300 296 293 292 294 298 302 306 309 311 312 311 310 309 308 306 304 302 300 299 297 296 295 294 294 293 293 292 292 292 293 293 293 291 290 289
299 301 302 298 291 281 271 264 261 259 259 259 260 261 260 260 260 260 262 265 267 269 269 269 269 270 273 283 295 305 297 154 147 243 291 309 304 301 306 309 310 313 318 321 320 314 310 306 303 299 296 295 296 298 301 305 309 313 315 315 314 313 312 310 309 307 305 304 302 301 300 299 298 296 295 295 294 293 293 293 293 293 291 290 289 288
305 308 308 304 297 285 272 265 262 263 265 265 264 262 260 258 257 258 260 263 268 272 275 275 275 273 269 264 255 250 261 256 267 285 297 304 301 297 300 301 302 303 304 301 291 283 292 298 299 299 300 300 301 303 306 309 312 314 316 315 314 313 312 311 309 308 306 306 305 303 302 301 299 298 297 297 296 295 294 293 292 291 289 288 288 287
307 308 308 304 297 286 276 272 272 273 274 274 269 264 259 258 257 258 260 264 268 272 275 277 276 274 269 262 258 256 258 261 268 279 288 291 291 291 293 293 293 294 294 291 281 272 269 278 290 297 300 300 301 303 305 308 310 313 314 313 312 311 312 311 310 308 307 307 306 305 304 303 302 301 301 300 298 297 295 293 291 289 287 286 285 285
306 307 306 302 296 287 280 278 278 279 279 276 273 268 264 262 262 263 263 264 266 269 272 274 274 272 269 266 264 263 262 263 266 271 274 276 279 283 286 286 287 288 290 288 283 277 273 276 283 291 297 298 299 299 300 303 307 311 312 311 309 309 310 310 310 309 308 308 307 306 306 306 306 305 304 302 300 298 296 293 291 288 285 284 284 285
306 306 304 301 297 292 287 283 281 278 277 275 274 273 271 270 268 266 264 262 261 262 264 267 268 268 267 265 266 266 267 268 271 271 268 267 272 278 282 281 281 283 284 283 282 281 281 281 283 287 293 297 298 297 296 299 304 307 307 306 305 305 307 308 308 308 308 308 307 306 306 307 307 306 304 303 301 299 296 293 290 287 285 284 283 283
306 304 302 301 301 301 300 295 288 284 282 278 277 276 276 275 273 270 266 264 261 259 259 260 262 264 265 265 266 267 270 272 274 274 270 268 270 273 276 276 277 277 277 277 278 280 283 285 287 288 289 292 295 296 297 300 302 302 302 301 302 303 304 305 306 307 307 306 305 305 305 305 305 303 303 302 300 297 294 291 289 287 285 284 283 281
303 301 300 301 304 305 304 301 298 295 292 289 285 282 282 281 279 277 274 271 268 265 263 261 261 262 263 265 267 269 271 273 274 273 271 270 269 270 270 272 273 273 271 272 275 279 282 286 288 289 287 286 288 293 297 301 302 301 298 299 300 301 302 303 304 305 304 303 303 303 303 302 301 300 300 299 298 296 294 291 290 289 288 286 284 281
298 297 298 301 303 304 302 301 300 300 298 297 293 289 287 285 283 282 280 278 275 273 271 268 267 265 265 265 266 267 269 271 272 272 271 270 269 268 267 269 270 269 267 268 271 275 278 282 286 288 288 287 286 289 293 298 300 300 299 299 299 298 298 300 302 303 302 300 300 299 299 299 298 298 298 298 298 297 295 294 294 293 291 290 287 285
293 295 299 303 305 305 304 303 302 300 299 297 295 294 292 290 289 288 287 285 283 281 278 276 274 272 270 269 268 269 270 272 273 273 272 270 269 267 267 267 268 268 269 269 269 270 272 274 277 281 285 289 290 291 292 294 296 298 300 301 300 298 297 298 299 299 298 297 297 296 296 296 297 297 297 298 298 297 295 295 294 293 292 291 290 288
291 296 299 303 305 305 305 303 302 300 298 297 295 294 295 295 296 296 295 294 293 291 288 286 285 283 280 278 277 277 278 278 278 277 275 272 270 269 268 267 268 270 272 271 270 269 268 269 271 275 278 283 287 290 292 293 294 296 300 301 300 298 298 298 297 296 295 294 294 294 295 296 297 297 296 296 295 293 292 292 291 291 290 289 288 288
294 299 302 304 304 303 302 300 300 300 298 296 294 293 294 297 301 303 303 304 305 305 305 305 302 298 295 293 290 288 286 284 282 279 277 275 274 273 272 270 270 272 272 272 271 269 267 268 271 274 276 279 283 287 288 289 291 294 296 295 295 295 297 297 296 295 294 293 293 293 294 294 295 294 293 292 291 289 288 288 288 289 289 287 285 284
300 305 308 308 305 302 299 297 297 298 296 296 296 296 295 296 300 305 308 310 311 312 312 309 307 304 301 298 295 293 290 287 284 282 279 277 276 276 275 274 274 274 274 273 272 270 269 269 270 273 276 279 282 285 287 288 290 291 290 290 293 296 297 296 295 294 294 293 293 293 293 292 292 292 292 291 290 289 288 287 287 287 286 284 282 280
305 309 311 310 307 304 301 302 302 302 302 304 304 303 301 299 301 304 306 307 307 307 308 306 305 302 298 296 295 295 294 291 288 285 281 279 278 276 276 276 276 276 275 273 272 272 272 272 271 271 274 277 279 281 284 287 289 290 288 288 291 294 295 296 296 296 295 293 292 292 292 291 291 291 291 290 289 288 288 287 286 285 282 281 280 279
305 307 309 310 311 312 311 309 307 307 310 313 315 316 315 311 306 302 300 299 299 300 301 302 302 299 294 292 293 296 297 296 291 286 282 280 278 277 276 276 277 277 276 273 271 273 276 275 274 274 275 276 277 278 281 284 287 288 288 288 287 286 285 289 293 295 295 293 292 291 290 290 291 291 291 290 288 288 287 286 285 284 282 281 280 279
300 301 304 305 306 306 305 305 309 313 317 320 321 323 325 319 307 298 294 293 294 295 296 299 298 294 290 290 293 296 299 297 294 291 288 286 283 281 280 279 279 279 277 275 272 271 272 274 276 278 279 278 276 276 277 280 284 286 286 286 286 283 282 285 288 290 291 291 290 290 290 291 291 290 289 289 288 287 286 285 284 284 283 282 281 279
294 296 296 295 297 301 305 310 314 318 321 323 324 324 323 314 302 295 290 291 292 294 295 296 293 287 286 289 294 297 299 298 297 296 296 296 296 293 289 287 285 284 281 279 276 274 272 271 274 278 281 280 278 276 276 277 279 282 284 285 286 285 285 285 285 285 286 287 288 289 290 291 290 288 287 286 287 287 286 285 283 282 282 282 281 279
290 292 294 296 299 302 305 309 313 315 317 318 319 320 318 311 303 296 293 293 294 294 294 293 288 284 283 287 291 293 295 297 298 299 300 301 301 300 297 294 292 290 287 284 281 278 275 274 273 274 274 276 278 278 277 277 277 278 281 283 285 285 285 285 285 285 284 284 284 285 288 288 287 285 284 285 285 286 285 285 284 283 282 282 281 279
291 293 296 298 300 301 302 304 306 308 309 309 311 312 312 309 303 298 295 294 293 292 289 288 286 284 284 284 286 288 290 292 294 296 298 299 301 301 300 299 297 295 292 289 285 281 278 276 273 271 268 268 271 275 277 278 277 276 278 280 281 282 282 283 284 285 284 282 282 282 283 283 281 280 282 284 285 286 286 286 285 284 283 282 281 280
288 290 293 295 296 297 297 298 300 302 303 303 303 304 304 305 299 293 291 292 291 289 286 284 284 283 283 284 286 287 288 289 290 292 294 297 299 300 300 300 299 297 294 291 287 284 281 278 275 271 267 263 263 267 273 275 276 276 277 277 277 277 279 281 283 284 283 282 282 282 282 280 278 277 278 280 282 285 286 286 286 285 284 283 281 280
281 284 286 289 290 292 292 294 296 297 297 297 296 296 297 298 297 294 292 292 290 288 284 281 281 281 282 284 286 288 288 288 289 290 292 294 296 297 297 297 297 296 296 294 292 290 288 285 282 277 270 263 260 262 266 271 275 277 276 275 274 275 277 279 281 283 283 283 283 283 283 281 279 278 277 276 279 282 284 285 286 286 285 285 283 281
274 276 279 281 284 286 288 290 291 292 292 291 291 291 292 292 292 292 291 290 288 285 283 282 280 280 281 283 285 286 286 287 287 288 290 292 294 294 293 294 294 294 295 296 297 297 295 294 291 288 283 273 263 260 262 266 272 276 276 276 275 275 276 278 280 282 283 283 284 283 283 282 280 279 277 276 278 281 284 285 286 286 286 286 285 283
Height
800 800 801 802 804 805 806 808 809 810 811 813 814 814 815 816 816 817 817 818 818 818 818 819 820 822 823 823 823 822 821 821 821 821 821 821 822 822 822 822 822 822 821 821 820 820 820 819 819 818 818 818 818 818 819 819 819 819 819 818 818 818 817 817 817 817 817 817 817 816 816 816 816 816 815 815 815 815 815 815 815 815 815 815 814 814
800 801 802 803 804 805 807 807 808 809 810 811 812 813 814 815 815 816 816 817 817 817 818 819 820 821 822 822 821 821 821 820 820 820 820 820 820 820 821 821 820 820 820 820 819 819 818 818 818 817 817 817 817 818 818 818 818 818 818 817 817 817 816 816 816 816 816 816 816 815 815 815 815 815 815 814 814 814 814 814 814 813 813 813 813 813
800 801 802 803 804 805 806 807 807 808 809 810 811 812 813 814 815 815 816 816 816 817 817 818 820 821 821 821 820 820 820 820 819 819 819 819 819 820 820 819 819 819 818 818 818 817 817 817 817 816 816 816 816 816 817 817 817 817 816 816 816 816 815 815 815 815 815 815 815 814 814 814 814 814 813 813 813 813 813 812 812 812 812 812 811 811
801 801 802 803 804 805 805 806 806 807 809 810 811 812 813 813 814 815 815 816 816 816 817 818 819 820 820 820 820 820 819 818 818 818 818 818 818 818 818 818 818 817 817 817 816 816 816 816 815 815 815 815 815 815 815 815 815 815 815 815 815 815 815 815 814 814 814 814 813 813 813 813 812 812 812 812 812 811 811 811 811 810 810 810 810 810
802 802 802 803 804 805 805 806 806 807 809 810 811 812 812 813 814 815 815 815 815 816 816 817 818 819 819 820 819 819 818 817 817 817 817 817 817 817 817 817 816 816 816 815 815 815 815 815 814 814 814 814 814 814 815 815 815 815 815 815 815 814 814 814 813 813 813 812 812 812 811 811 811 811 810 810 810 810 810 810 809 809 809 809 809 809
802 802 802 803 804 805 806 806 806 807 809 810 811 812 812 813 814 814 815 815 815 815 816 817 818 819 819 819 818 817 816 816 816 816 815 815 815 815 815 815 815 815 815 814 814 814 813 813 813 813 813 813 813 814 814 814 814 814 814 814 814 813 813 812 812 812 811 811 810 810 810 810 809 809 809 809 809 808 808 808 808 808 808 807 807 807
803 803 803 804 804 805 806 806 806 807 809 810 811 812 812 813 813 813 814 814 815 815 816 817 818 818 818 817 816 816 815 815 815 814 814 814 814 814 814 814 813 813 813 813 812 812 812 812 812 812 812 812 813 813 813 813 813 813 813 813 812 812 811 811 810 810 810 809 809 808 808 808 808 808 807 807 807 807 807 806 806 806 806 806 806 806
803 803 804 804 805 805 806 806 807 808 809 810 811 811 812 812 813 813 814 814 815 815 816 817 817 817 816 816 815 815 814 814 813 813 813 813 813 813 812 812 812 811 811 811 811 811 811 811 811 812 812 812 812 812 812 812 812 812 811 811 810 810 810 809 809 808 808 807 807 807 807 806 806 806 806 806 806 805 805 805 805 805 805 805 805 805
803 804 805 805 805 806 806 807 807 808 809 810 810 811 812 812 813 813 814 814 815 815 815 816 816 815 815 814 814 813 813 812 812 812 812 812 811 811 811 810 810 810 810 810 810 811 811 811 811 811 811 811 811 811 811 810 810 810 810 809 809 808 808 807 807 806 806 806 806 805 805 805 805 805 805 805 804 804 804 804 804 804 803 803 803 803
804 805 805 806 806 806 807 807 808 808 809 810 810 811 812 812 813 813 814 814 814 814 815 815 814 814 813 813 812 812 812 811 811 811 811 810 810 810 810 809 809 809 809 810 810 810 810 810 810 810 810 810 809 809 809 809 808 808 808 807 807 806 806 805 805 805 805 805 805 804 804 804 804 804 804 803 803 803 803 803 802 802 802 802 802 802
805 805 805 806 806 806 807 807 808 808 809 810 810 811 812 812 813 813 813 813 813 813 813 813 813 812 812 811 811 811 810 810 810 810 810 810 809 809 809 808 808 808 808 809 809 809 809 808 808 808 808 808 808 807 807 807 806 806 805 805 805 805 804 804 804 804 804 803 803 803 803 803 803 803 802 802 802 802 802 801 801 801 801 800 800 800
805 805 806 806 806 806 807 807 808 809 809 810 810 811 811 811 812 812 812 812 812 812 812 811 811 811 810 810 810 810 810 809 809 809 809 809 808 808 808 808 808 808 808 808 808 808 807 807 807 807 806 806 806 805 805 805 804 804 804 803 803 803 803 803 803 802 802 802 802 802 802 802 802 801 801 801 801 800 800 800 800 800 800 799 799 799
805 805 806 806 806 806 807 808 808 809 809 810 810 810 810 811 811 811 811 811 811 811 811 810 810 810 810 810 809 809 809 808 808 808 808 807 807 807 807 807 807 807 807 806 806 806 806 806 805 805 805 805 804 804 804 803 803 802 802 802 802 802 802 802 801 801 801 801 801 801 801 801 800 800 800 800 800 799 799 799 799 798 798 798 797 797
805 805 805 806 806 807 807 808 808 809 809 809 810 810 810 810 810 810 810 810 810 810 810 810 809 809 809 809 808 808 808 807 807 807 807 806 806 806 806 806 805 805 805 805 805 805 805 804 804 804 803 803 803 802 802 802 801 801 801 801 801 801 801 800 800 800 800 800 800 800 800 799 799 799 799 798 798 798 798 797 797 797 796 796 796 795
805 805 806 806 806 807 807 808 808 808 809 809 809 809 809 809 809 809 809 809 809 809 809 809 808 808 808 808 808 807 807 806 806 806 805 805 805 805 805 805 804 804 804 803 803 803 803 803 802 802 802 802 801 801 801 800 800 800 800 800 800 800 800 800 800 799 799 799 799 798 798 798 798 797 797 797 796 796 796 795 795 795 795 794 794 794
805 806 806 806 807 807 807 808 808 808 808 808 808 809 809 809 809 809 809 809 808 808 808 808 808 807 807 807 807 807 806 806 805 805 805 804 804 804 804 803 803 802 802 802 802 802 802 801 801 801 801 800 800 800 800 800 799 799 799 799 799 799 799 798 798 798 798 797 797 797 796 796 796 796 795 795 795 795 794 794 794 793 793 792 792 792
806 806 806 807 807 807 807 807 808 808 808 808 808 808 808 808 808 808 808 808 808 808 808 807 807 807 807 807 806 806 806 806 805 805 804 803 802 803 803 802 801 801 800 800 800 800 800 800 800 800 800 799 799 799 799 798 798 798 798 798 797 797 797 797 797 796 796 796 796 795 795 795 794 794 794 793 793 793 792 792 792 791 791 791 790 790
806 806 806 807 807 807 807 807 807 807 808 808 808 808 808 808 808 808 808 807 807 807 807 807 807 807 807 806 806 806 805 805 805 804 803 801 801 801 801 801 800 800 799 799 799 799 799 799 799 798 798 798 798 797 797 797 797 797 796 796 796 796 796 795 795 795 795 795 794 794 793 793 793 792 792 792 791 791 790 790 790 790 789 789 788 788
806 806 807 807 807 807 807 807 807 807 807 808 808 808 808 807 807 807 807 807 807 807 807 807 807 807 806 806 806 806 805 805 804 803 802 800 800 800 800 800 799 798 798 798 798 798 798 797 797 797 797 797 796 796 796 796 795 795 795 795 795 795 794 794 794 793 793 793 792 792 792 791 791 790 790 790 790 789 789 788 788 788 787 787 786 786
806 806 807 807 807 807 807 807 807 807 808 808 808 807 807 807 807 807 807 807 807 807 806 807 806 806 806 805 805 805 805 804 804 803 801 800 798 798 798 798 797 797 796 796 796 797 796 796 796 796 796 795 795 795 794 794 794 794 794 794 793 793 793 793 792 792 791 791 791 790 790 790 789 789 788 788 788 787 787 786 786 785 785 785 784 784
806 807 807 807 807 807 807 807 807 807 807 807 807 807 807 807 807 807 807 806 806 806 806 806 806 805 805 805 805 804 804 804 803 802 801 799 797 797 797 797 796 796 795 795 795 795 795 795 795 794 794 794 794 793 793 793 792 792 792 792 792 792 791 791 791 790 790 790 789 789 788 788 787 787 786 786 786 785 785 784 784 784 783 783 782 782
807 807 807 807 807 807 807 807 807 807 807 807 807 807 807 807 807 806 806 806 806 806 805 805 805 805 804 804 804 803 803 803 802 802 800 798 796 796 796 796 796 795 794 794 794 794 794 793 793 793 793 792 792 792 791 791 791 791 791 791 790 790 790 790 789 789 788 788 788 787 786 786 785 785 785 784 784 783 783 782 782 782 781 781 780 780
807 807 807 807 807 807 807 807 807 807 807 807 807 806 806 806 806 806 806 806 805 805 805 805 804 804 803 803 803 802 802 802 802 801 800 798 796 795 796 795 795 794 793 793 793 792 792 792 791 791 791 791 791 790 790 790 790 790 789 789 789 789 788 788 788 787 787 786 786 785 785 784 784 783 783 782 782 781 781 780 780 780 779 779 778 778
806 806 807 807 807 807 807 807 807 806 806 806 806 806 806 806 806 805 805 805 805 805 804 804 803 803 802 802 802 801 801 801 801 800 800 798 796 795 795 795 794 793 792 792 791 791 790 790 790 790 790 790 789 789 788 788 788 788 788 788 787 787 787 786 786 785 785 785 784 783 783 782 782 781 781 780 780 780 779 779 778 778 777 777 776 775
806 806 806 806 806 806 806 806 806 806 806 806 806 806 805 805 805 805 805 804 804 804 803 803 802 802 801 801 801 800 800 800 800 800 799 798 796 795 795 795 794 793 791 790 790 790 789 788 787 787 788 788 788 787 787 787 787 786 786 786 786 785 785 785 784 784 783 782 782 781 781 780 780 780 779 779 778 778 777 777 776 776 775 775 774 773
806 806 806 806 806 806 807 806 806 806 806 805 805 805 805 805 804 804 804 803 803 803 803 802 802 801 801 801 800 800 800 800 799 799 799 797 795 794 794 794 794 793 791 790 789 789 788 787 786 785 786 786 786 786 785 785 785 785 785 785 784 784 783 783 782 781 781 780 780 779 779 779 778 778 777 777 776 776 775 775 775 774 773 773 772 771
806 806 806 806 806 806 806 806 806 805 805 805 805 805 804 804 803 803 803 803 803 803 802 802 801 801 800 800 800 799 799 799 798 798 798 797 795 794 794 794 794 793 791 790 789 788 788 786 785 784 784 784 785 784 784 784 784 783 783 783 782 782 781 780 780 780 779 778 778 777 777 777 776 776 775 775 775 774 774 773 772 772 771 770 770 769
805 805 805 805 805 805 805 805 804 804 804 804 805 804 804 803 802 802 802 802 802 802 802 801 801 800 800 799 799 798 798 797 797 797 796 796 795 794 793 794 794 793 792 790 788 787 787 785 784 783 783 783 783 783 783 782 782 782 781 781 780 780 779 779 778 777 777 776 776 776 775 775 775 774 774 773 773 772 772 771 770 770 769 768 767 766
805 805 805 805 805 804 804 804 803 803 803 803 803 803 803 802 801 801 801 801 801 801 801 800 800 800 800 799 798 797 797 796 796 795 796 795 795 794 794 794 793 793 792 790 788 786 785 784 783 783 782 782 782 781 781 781 780 780 779 779 778 777 777 776 776 775 775 775 774 774 773 773 773 772 772 771 770 770 770 769 769 768 767 766 765 764
804 804 804 804 803 803 803 802 802 802 802 802 802 802 801 801 800 800 800 800 800 800 800 799 799 799 799 798 798 797 796 795 795 795 795 795 795 794 793 793 793 793 793 792 790 786 784 782 782 782 781 781 780 780 779 779 778 778 777 776 775 775 775 774 774 773 773 773 772 772 771 771 770 770 770 769 769 768 768 767 767 766 765 764 763 762
803 803 803 802 802 802 801 801 801 800 800 800 800 800 800 800 799 799 799 799 799 799 798 798 798 798 798 798 798 797 796 795 795 795 795 795 794 794 793 793 793 793 793 793 792 790 785 782 780 780 780 780 779 777 777 776 776 775 775 774 773 773 772 772 772 771 771 770 770 770 769 769 768 768 767 767 766 766 765 765 765 764 763 762 761 760
802 802 802 801 801 800 800 800 800 800 799 799 799 799 799 798 798 798 798 798 798 798 797 797 797 797 797 797 798 797 796 795 795 795 795 795 794 794 793 793 793 793 793 793 793 792 789 784 780 779 779 778 777 775 775 775 774 774 773 772 771 770 770 770 770 770 769 768 768 767 767 767 766 766 765 765 764 764 763 763 763 762 761 760 760 759
802 801 801 800 800 800 799 799 799 799 798 798 798 798 798 797 797 797 797 797 797 797 796 796 796 796 796 796 796 795 795 795 795 795 795 795 794 793 793 793 792 792 792 792 792 791 790 786 782 779 778 776 775 775 774 773 772 772 772 771 770 769 768 768 768 767 767 766 765 765 765 764 764 763 763 762 762 762 761 761 761 760 760 759 758 757
801 800 800 799 799 799 798 798 798 798 798 797 797 797 797 797 796 796 796 796 796 796 795 795 795 795 795 795 795 794 794 794 794 794 795 794 794 793 792 792 792 791 791 790 790 789 788 785 783 781 778 775 774 774 773 772 771 771 770 770 769 768 767 766 766 765 765 764 763 763 762 762 761 761 760 760 760 760 759 759 759 759 758 758 757 755
800 799 799 799 798 798 798 797 797 797 797 797 796 796 796 796 796 795 795 795 795 795 795 795 795 795 794 794 794 793 792 792 793 793 794 793 793 792 791 791 791 790 790 789 788 787 786 784 783 781 779 775 773 772 771 771 771 770 770 769 768 767 766 765 765 764 763 762 761 760 760 760 759 759 758 758 758 757 757 757 757 756 756 756 755 754
799 799 798 798 798 797 797 797 797 796 796 796 796 795 795 795 795 795 795 795 794 794 794 794 794 794 793 793 792 792 791 791 792 792 792 792 792 791 791 790 789 789 789 788 787 786 785 783 781 780 779 776 773 770 770 770 770 769 768 768 767 766 765 764 764 763 762 760 760 759 758 758 757 757 756 756 756 755 755 755 755 754 754 753 753 752
798 798 798 797 797 797 796 796 796 796 795 795 795 795 795 794 794 794 794 794 793 793 793 793 792 792 792 791 791 790 790 790 790 791 791 791 790 790 789 788 788 788 788 787 786 785 784 782 780 778 777 776 773 771 769 768 768 768 767 766 766 765 764 763 762 762 761 760 759 758 757 756 756 755 755 754 754 753 753 752 752 751 751 750 750 750
797 797 797 797 796 796 796 796 795 795 795 795 794 794 794 794 793 793 793 792 792 792 791 791 791 790 790 790 790 789 789 789 789 789 789 789 789 789 788 787 786 786 786 785 785 784 783 781 780 777 775 774 772 771 770 768 767 766 765 765 764 764 763 762 761 761 760 759 758 756 756 755 755 754 753 752 752 751 750 749 749 749 748 748 747 746
797 796 796 796 796 795 795 795 795 795 794 794 794 793 793 793 792 792 791 791 791 790 790 790 789 789 789 788 788 788 787 787 787 787 787 787 787 787 786 785 785 784 784 784 783 783 782 780 779 777 775 773 770 769 768 768 767 765 764 763 762 761 761 761 760 760 759 758 756 755 754 754 753 752 751 750 750 749 748 747 746 746 746 745 744 743
796 796 796 795 795 795 795 794 794 794 793 793 793 792 792 791 791 791 790 790 789 789 788 788 788 787 787 786 786 786 786 786 785 785 785 785 785 785 785 784 783 783 782 782 782 781 780 779 777 776 775 773 770 768 767 766 766 765 764 762 760 759 759 759 759 758 757 756 755 754 753 752 751 750 750 749 748 747 746 745 745 744 744 743 742 741
795 795 795 795 795 794 794 794 793 793 793 792 792 791 791 790 790 789 789 788 788 788 787 787 786 786 785 785 785 785 785 784 784 784 784 783 783 783 783 782 782 781 781 780 780 779 779 778 776 775 773 772 770 768 766 765 765 764 764 762 759 757 757 757 757 756 755 755 754 753 752 751 750 749 748 747 746 745 745 744 743 742 741 741 740 740
795 795 795 794 794 794 793 793 793 792 792 791 791 790 790 789 789 788 788 787 787 787 786 786 786 785 785 784 783 783 783 783 782 782 782 782 782 781 781 781 780 780 780 779 778 777 777 776 775 774 772 771 770 767 765 763 763 763 762 761 759 757 755 754 755 755 754 753 752 751 750 749 748 747 746 745 744 743 742 741 741 740 739 738 738 737
795 794 794 794 793 793 792 792 792 791 791 790 790 789 789 788 788 788 787 787 786 786 786 786 785 785 784 783 782 781 781 781 781 781 780 780 780 780 780 779 779 779 778 777 776 775 775 774 773 772 771 770 769 767 764 762 761 760 760 760 759 757 754 752 751 752 752 751 750 749 749 748 746 745 744 743 742 740 740 739 738 737 737 736 735 735
794 794 793 793 792 792 792 791 791 790 790 789 789 788 788 787 787 787 787 786 786 786 785 785 785 784 783 782 781 780 780 780 780 780 779 779 779 778 778 778 777 777 777 776 775 774 773 772 771 770 770 769 767 765 763 761 760 759 758 758 757 756 754 751 750 750 749 749 748 747 747 746 745 743 742 741 739 738 737 736 735 734 734 733 733 732
793 793 793 792 792 792 791 791 790 790 789 788 788 787 787 787 787 787 787 786 786 785 785 785 784 783 782 781 780 779 779 778 778 778 778 778 777 777 777 776 776 775 775 775 774 773 772 770 769 768 768 767 765 764 762 760 758 757 756 755 755 754 752 751 750 749 748 746 745 745 745 744 743 742 740 738 737 736 735 734 733 732 731 730 730 729
793 792 792 792 791 791 790 790 789 789 788 788 787 787 786 786 786 786 786 785 785 784 784 784 783 782 781 780 779 778 778 777 776 776 776 776 775 775 775 775 774 774 773 772 772 771 770 769 768 766 765 765 763 761 760 759 757 755 754 753 753 752 750 749 748 747 746 745 744 743 742 742 742 740 738 736 735 733 732 731 730 729 728 728 727 726
792 791 791 791 790 790 790 789 789 788 788 787 786 786 786 786 786 785 785 785 784 784 783 783 782 781 780 779 779 778 777 776 775 774 774 774 774 774 773 773 773 772 771 770 770 769 768 767 766 765 764 763 760 758 757 756 756 754 752 751 750 750 748 747 746 745 745 744 742 741 741 740 740 738 736 735 733 731 729 728 728 727 726 725 725 724
791 790 790 790 790 789 789 789 788 788 787 786 786 785 785 785 785 785 784 784 783 783 782 782 781 780 779 779 778 777 776 775 774 773 773 772 772 772 771 771 770 770 769 769 768 767 765 765 764 763 762 761 759 756 754 753 753 753 751 750 749 748 746 744 743 743 743 741 740 740 739 739 738 736 735 733 730 728 727 725 725 724 724 723 723 721
790 790 790 789 789 789 788 788 787 787 786 786 785 785 784 784 784 784 783 783 782 782 781 780 780 779 778 777 776 776 775 774 773 772 771 771 770 770 770 769 769 768 767 766 765 765 763 762 761 760 760 759 757 755 752 751 750 750 749 748 747 746 744 742 741 741 740 739 738 738 737 737 736 735 733 731 729 726 724 723 722 721 721 721 720 719
789 789 789 788 788 787 787 787 786 786 785 785 784 784 783 783 783 782 782 781 781 780 780 780 779 778 777 776 775 775 774 773 772 771 770 770 770 769 769 768 767 767 765 765 764 762 761 760 758 757 757 756 755 754 751 750 748 748 747 746 745 744 742 740 739 738 738 737 736 736 735 734 733 733 732 730 727 724 722 720 719 718 718 718 717 716
788 788 787 787 787 786 786 785 785 785 784 784 783 783 782 782 781 781 781 780 780 779 779 778 778 777 776 775 774 773 773 772 771 770 769 769 769 768 767 767 766 765 765 763 762 760 759 757 755 754 753 753 753 752 751 749 747 746 745 743 742 742 740 739 737 736 736 735 735 734 733 732 731 730 730 728 725 723 720 718 716 715 715 715 715 713